Powrót do katalogu

STARLINK-30926

AktywnyŁącznośćVLEO
NORAD 58448·PAYLOAD·🇺🇸 United States

Wystrzelony Nov 28, 2023 z Cape Canaveral Space Force Station

Loading…

Następne Przeloty (najbliższe 24 godziny)

TLE

ŚwieżeSource: CelesTrak SupGP

Epoka: Sep 14, 2026, 22:00 UTC

1 58448C 23183M   26257.91715278  .00065490  00000+0  23712-2 0  2575
2 58448  43.0041  52.5385 0001575 268.2472 274.3971 15.27557783    14

Śledź STARLINK-30926 w czasie rzeczywistym z AllMySat

Download on the App Store